Location: ???????
(55.4362°N, 38.1183°E)
Time: 00:49:27
(UTC+00:00)

Cosmos 1602 Rocket - Visible Passes

Search period start: 23 October 2021 00:00
Search period end: 02 November 2021 00:00
Orbit: 603 x 633 km, 82.5° (Epoch: 22 October)

Date Brightness Start Highest point End Pass type
(mag) Time Alt. Az. Time Alt. Az. Time Alt. Az.
23 Oct 3.4 15:50:26 10° N 15:54:49 77° ENE 15:59:09 10° SSE visible
23 Oct 6.4 17:29:24 10° NW 17:32:06 16° W 17:34:48 10° WSW visible
24 Oct 3.9 16:07:35 10° NNW 16:11:55 65° W 16:16:12 10° S visible
24 Oct 6.9 17:48:39 10° WNW 17:48:52 10° WNW 17:49:06 10° W visible
25 Oct 4.3 14:47:04 10° N 14:50:58 31° ENE 14:54:49 10° SE visible
25 Oct 4.9 16:24:51 10° NNW 16:28:56 39° W 16:32:57 10° SSW visible
26 Oct 6.8 03:28:11 10° ESE 03:30:19 13° E 03:32:27 10° NE visible
26 Oct 3.7 15:03:59 10° N 15:08:14 48° ENE 15:12:25 10° SSE visible
26 Oct 5.8 16:42:17 10° NNW 16:45:51 25° W 16:49:23 10° SW visible
27 Oct 3.4 15:21:02 10° N 15:25:25 79° ENE 15:29:45 10° SSE visible
27 Oct 6.5 17:00:03 10° NW 17:02:41 16° W 17:05:18 10° WSW visible
28 Oct 4.0 15:38:11 10° NNW 15:42:31 64° W 15:46:47 10° S visible
29 Oct 5.0 15:55:28 10° NNW 15:59:31 39° W 16:03:31 10° SSW visible
30 Oct 6.8 02:58:42 10° ESE 03:00:54 14° E 03:03:05 10° NE visible
30 Oct 3.7 14:34:35 10° N 14:38:50 49° ENE 14:43:02 10° SSE visible
30 Oct 6.0 16:12:54 10° NNW 16:16:25 24° W 16:19:54 10° SW visible
31 Oct 6.4 03:14:23 10° SE 03:17:43 21° E 03:21:02 10° NE visible
31 Oct 3.5 14:51:38 10° N 14:56:00 80° E 15:00:19 10° SSE visible
31 Oct 6.7 16:30:42 10° NW 16:33:15 16° W 16:35:48 10° WSW visible
01 Nov 5.6 03:30:39 10° SSE 03:34:36 33° E 03:38:33 10° NNE visible
01 Nov 4.1 15:08:47 10° NNW 15:13:05 62° W 15:17:21 10° S visible
